| time (UTC) | temp F | wind direction | speed MPH | gust MPH | rain 1hr in | rain 24hr in | rain mn in | humidity % | barometer mb |
| 20260503220004 | 77 | 286 | 2.0 | 6.0 | 0.00 | 0.00 | 0.00 | 35 | 1018.6 |
| 20260503214507 | 76 | 296 | 4.0 | 8.0 | 0.00 | 0.00 | 0.00 | 35 | 1018.8 |
| 20260503213004 | 76 | 267 | 5.0 | 9.0 | 0.00 | 0.00 | 0.00 | 35 | 1019.1 |
| 20260503211504 | 77 | 273 | 4.0 | 8.0 | 0.00 | 0.00 | 0.00 | 36 | 1019.1 |
| 20260503210008 | 77 | 294 | 3.0 | 6.0 | 0.00 | 0.00 | 0.00 | 35 | 1019.3 |
| 20260503204506 | 75 | 273 | 2.0 | 8.0 | 0.00 | 0.00 | 0.00 | 38 | 1019.5 |
| 20260503203005 | 76 | 7 | 2.0 | 7.0 | 0.00 | 0.00 | 0.00 | 39 | 1019.6 |
| 20260503201508 | 75 | 82 | 2.0 | 9.0 | 0.00 | 0.00 | 0.00 | 38 | 1019.9 |
| 20260503200004 | 76 | 302 | 6.0 | 9.0 | 0.00 | 0.00 | 0.00 | 37 | 1020.2 |
| 20260503194506 | 76 | 165 | 2.0 | 3.0 | 0.00 | 0.00 | 0.00 | 37 | 1020.5 |
| 20260503193002 | 75 | 269 | 3.0 | 6.0 | 0.00 | 0.00 | 0.00 | 37 | 1020.8 |
| 20260503191507 | 75 | 155 | 1.0 | 7.0 | 0.00 | 0.00 | 0.00 | 38 | 1020.9 |
| 20260503190017 | 75 | 224 | 1.0 | 8.0 | 0.00 | 0.00 | 0.00 | 40 | 1021.3 |
| 20260503184508 | 74 | 302 | 2.0 | 9.0 | 0.00 | 0.00 | 0.00 | 37 | 1021.5 |
| 20260503183014 | 76 | 270 | 3.0 | 9.0 | 0.00 | 0.00 | 0.00 | 39 | 1021.6 |
| 20260503181508 | 74 | 300 | 2.0 | 8.0 | 0.00 | 0.00 | 0.00 | 40 | 1021.7 |
| 20260503180011 | 74 | 353 | 4.0 | 8.0 | 0.00 | 0.00 | 0.00 | 38 | 1021.9 |
| 20260503174509 | 73 | 253 | 4.0 | 9.0 | 0.00 | 0.00 | 0.00 | 39 | 1022.0 |
| 20260503173007 | 72 | 315 | 5.0 | 8.0 | 0.00 | 0.00 | 0.00 | 38 | 1022.2 |
| 20260503171508 | 72 | 330 | 6.0 | 8.0 | 0.00 | 0.00 | 0.00 | 38 | 1022.4 |
| 20260503081535 | 44 | 109 | 0.0 | 0.0 | 0.00 | 0.18 | 0.00 | 95 | 1020.5 |
| 20260503071520 | 45 | 109 | 0.0 | 0.0 | 0.00 | 0.24 | 0.00 | 94 | 1020.0 |
| 20260503054530 | 46 | 108 | 0.0 | 0.0 | 0.00 | 0.29 | 0.00 | 93 | 1020.0 |
| 20260503053025 | 47 | 109 | 0.0 | 0.0 | 0.00 | 0.29 | 0.00 | 93 | 1020.1 |
| 20260503051513 | 47 | 109 | 0.0 | 0.0 | 0.00 | 0.29 | 0.00 | 93 | 1020.1 |
| 20260503050003 | 47 | 109 | 0.0 | 0.0 | 0.00 | 0.30 | 0.00 | 92 | 1020.1 |
| 20260503044507 | 47 | 109 | 0.0 | 0.0 | 0.00 | 0.31 | 0.30 | 92 | 1020.2 |
| 20260503043008 | 48 | 109 | 0.0 | 0.0 | 0.00 | 0.31 | 0.30 | 92 | 1020.1 |
| 20260503041516 | 48 | 109 | 0.0 | 0.0 | 0.00 | 0.32 | 0.30 | 92 | 1020.1 |
| 20260503040019 | 48 | 109 | 0.0 | 0.0 | 0.00 | 0.32 | 0.30 | 91 | 1020.1 |
| 20260503034520 | 49 | 109 | 0.0 | 0.0 | 0.00 | 0.33 | 0.30 | 91 | 1019.9 |
| 20260503033005 | 49 | 109 | 0.0 | 0.0 | 0.00 | 0.35 | 0.30 | 90 | 1019.8 |
| 20260503031507 | 50 | 109 | 0.0 | 0.0 | 0.00 | 0.38 | 0.30 | 90 | 1019.7 |
| 20260503030014 | 50 | 99 | 0.0 | 1.0 | 0.00 | 0.40 | 0.30 | 89 | 1019.6 |
| 20260503024520 | 51 | 123 | 0.0 | 0.0 | 0.00 | 0.41 | 0.30 | 88 | 1019.5 |
| 20260503023022 | 52 | 123 | 0.0 | 0.0 | 0.00 | 0.42 | 0.30 | 87 | 1019.2 |
| 20260503021503 | 52 | 123 | 0.0 | 1.0 | 0.00 | 0.42 | 0.30 | 86 | 1019.0 |
| 20260503020011 | 53 | 1 | 0.0 | 0.0 | 0.00 | 0.42 | 0.30 | 84 | 1018.8 |
| 20260503014513 | 54 | 353 | 0.0 | 0.0 | 0.00 | 0.43 | 0.30 | 82 | 1018.8 |
| 20260503013020 | 55 | 353 | 0.0 | 0.0 | 0.00 | 0.46 | 0.30 | 80 | 1018.7 |
| 20260503011524 | 57 | 353 | 0.0 | 0.0 | 0.00 | 0.48 | 0.30 | 76 | 1018.4 |
| 20260503010004 | 59 | 353 | 0.0 | 0.0 | 0.00 | 0.48 | 0.30 | 74 | 1018.1 |
| 20260503004522 | 62 | 353 | 0.0 | 0.0 | 0.00 | 0.49 | 0.30 | 68 | 1018.0 |
| 20260503003016 | 65 | 353 | 0.0 | 2.0 | 0.00 | 0.50 | 0.30 | 53 | 1017.7 |
| 20260503001520 | 68 | 334 | 1.0 | 5.0 | 0.00 | 0.51 | 0.30 | 44 | 1017.5 |
| 20260503000023 | 69 | 326 | 1.0 | 5.0 | 0.00 | 0.52 | 0.30 | 43 | 1017.4 |
| 20260502234510 | 70 | 17 | 3.0 | 8.0 | 0.00 | 0.54 | 0.30 | 40 | 1017.2 |
| 20260502233013 | 70 | 311 | 2.0 | 9.0 | 0.00 | 0.56 | 0.30 | 40 | 1016.9 |
| 20260502231519 | 71 | 293 | 3.0 | 11.0 | 0.00 | 0.57 | 0.30 | 37 | 1016.9 |
| 20260502230022 | 71 | 312 | 4.0 | 11.0 | 0.00 | 0.58 | 0.30 | 38 | 1016.8 |
| 20260502224526 | 71 | 312 | 3.0 | 12.0 | 0.00 | 0.60 | 0.30 | 39 | 1016.7 |
| 20260502223012 | 71 | 330 | 5.0 | 15.0 | 0.00 | 0.63 | 0.30 | 37 | 1016.6 |
| 20260502221515 | 71 | 334 | 2.0 | 8.0 | 0.00 | 0.68 | 0.30 | 38 | 1016.4 |